contact:dominique.lefevre@mio.osupytheas.fr, maurice.libes@osupytheas.fr, didier.mallarino@osupytheas.fr
Project:EMSO http://www.emso-fr.org/EMSO-France
Depth: 2436.0 m
Title:EMSO Ligure Ouest : Data MII capteur CSTAR
DateTime,Latitude,Longitude,Instrument_Serial,Reference_Counts,Signal_Counts,Corrected_Signal_raw_counts,Calculated_Beam_c_inverse_meters,Internal_thermistor_counts
DateTime,Latitude,Longitude,Instrument_Serial,Reference_Counts,Signal_Counts,Corrected_Signal_raw_counts,Calculated_Beam_c_inverse_meters,Internal_thermistor_counts
2020-06-10T00:01:48,42.805,6.029,CST-1368DR,6214,8709,15152,0.121,550
2020-06-10T00:04:50,42.805,6.029,CST-1368DR,6214,8709,15151,0.121,551
2020-06-10T00:07:52,42.805,6.029,CST-1368DR,6214,8708,15150,0.121,551
2020-06-10T00:10:53,42.805,6.029,CST-1368DR,6214,8709,15151,0.121,551
2020-06-10T00:13:55,42.805,6.029,CST-1368DR,6214,8708,15150,0.121,551
2020-06-10T00:16:57,42.805,6.029,CST-1368DR,6214,8708,15150,0.121,550
2020-06-10T00:19:58,42.805,6.029,CST-1368DR,6214,8708,15150,0.121,551
2020-06-10T00:23:00,42.805,6.029,CST-1368DR,6214,8708,15150,0.121,551
2020-06-10T00:26:02,42.805,6.029,CST-1368DR,6214,8708,15149,0.121,551
2020-06-10T00:29:03,42.805,6.029,CST-1368DR,6214,8708,15150,0.121,551
2020-06-10T00:32:05,42.805,6.029,CST-1368DR,6214,8709,15151,0.121,551
2020-06-10T00:35:07,42.805,6.029,CST-1368DR,6214,8708,15150,0.121,551
2020-06-10T00:38:09,42.805,6.029,CST-1368DR,6214,8708,15150,0.121,551
2020-06-10T00:41:10,42.805,6.029,CST-1368DR,6214,8708,15150,0.121,551
2020-06-10T00:44:12,42.805,6.029,CST-1368DR,6214,8709,15152,0.121,551
2020-06-10T00:47:14,42.805,6.029,CST-1368DR,6214,8706,15147,0.122,550
2020-06-10T00:50:15,42.805,6.029,CST-1368DR,6214,8706,15146,0.122,551
2020-06-10T00:53:17,42.805,6.029,CST-1368DR,6214,8708,15150,0.121,551
2020-06-10T00:56:19,42.805,6.029,CST-1368DR,6214,8708,15150,0.121,551
2020-06-10T00:59:21,42.805,6.029,CST-1368DR,6214,8708,15150,0.121,551
2020-06-10T01:02:22,42.805,6.029,CST-1368DR,6214,8709,15151,0.121,551
2020-06-10T01:05:24,42.805,6.029,CST-1368DR,6214,8707,15147,0.122,551
2020-06-10T01:08:26,42.805,6.029,CST-1368DR,6214,8708,15149,0.121,551
2020-06-10T01:11:27,42.805,6.029,CST-1368DR,6214,8707,15148,0.122,551
2020-06-10T01:14:29,42.805,6.029,CST-1368DR,6214,8708,15150,0.121,551
2020-06-10T01:17:31,42.805,6.029,CST-1368DR,6214,8708,15149,0.121,550
2020-06-10T01:20:33,42.805,6.029,CST-1368DR,6214,8708,15150,0.121,551
2020-06-10T01:23:34,42.805,6.029,CST-1368DR,6214,8709,15151,0.121,551
2020-06-10T01:26:36,42.805,6.029,CST-1368DR,6214,8708,15150,0.121,551
2020-06-10T01:29:38,42.805,6.029,CST-1368DR,6214,8708,15150,0.121,551
2020-06-10T01:32:39,42.805,6.029,CST-1368DR,6214,8708,15150,0.121,551
2020-06-10T01:35:41,42.805,6.029,CST-1368DR,6213,8707,15150,0.121,551
2020-06-10T01:38:43,42.805,6.029,CST-1368DR,6213,8708,15152,0.121,551
2020-06-10T01:41:44,42.805,6.029,CST-1368DR,6214,8708,15150,0.121,550
2020-06-10T01:44:46,42.805,6.029,CST-1368DR,6214,8708,15150,0.121,551
2020-06-10T01:47:48,42.805,6.029,CST-1368DR,6214,8708,15150,0.121,551
2020-06-10T01:50:49,42.805,6.029,CST-1368DR,6213,8708,15152,0.121,551
2020-06-10T01:53:51,42.805,6.029,CST-1368DR,6214,8708,15150,0.121,551
2020-06-10T01:56:53,42.805,6.029,CST-1368DR,6213,8708,15152,0.121,551
2020-06-10T01:59:55,42.805,6.029,CST-1368DR,6213,8708,15152,0.121,551
2020-06-10T02:02:56,42.805,6.029,CST-1368DR,6213,8709,15154,0.120,551
2020-06-10T02:05:58,42.805,6.029,CST-1368DR,6213,8708,15151,0.121,551
2020-06-10T02:09:00,42.805,6.029,CST-1368DR,6213,8707,15150,0.121,551
2020-06-10T02:12:01,42.805,6.029,CST-1368DR,6213,8708,15152,0.121,551
2020-06-10T02:15:03,42.805,6.029,CST-1368DR,6213,8704,15145,0.123,551
2020-06-10T02:18:05,42.805,6.029,CST-1368DR,6213,8708,15151,0.121,551
2020-06-10T02:21:06,42.805,6.029,CST-1368DR,6213,8708,15153,0.120,551
2020-06-10T02:24:08,42.805,6.029,CST-1368DR,6213,8708,15153,0.120,551
2020-06-10T02:27:10,42.805,6.029,CST-1368DR,6213,8708,15152,0.121,551
2020-06-10T02:30:12,42.805,6.029,CST-1368DR,6213,8708,15152,0.121,551
2020-06-10T02:33:13,42.805,6.029,CST-1368DR,6213,8705,15146,0.122,551
2020-06-10T02:36:15,42.805,6.029,CST-1368DR,6213,8708,15152,0.121,551
2020-06-10T02:39:17,42.805,6.029,CST-1368DR,6213,8707,15150,0.121,551
2020-06-10T02:42:18,42.805,6.029,CST-1368DR,6213,8708,15153,0.120,551
2020-06-10T02:45:20,42.805,6.029,CST-1368DR,6213,8709,15153,0.120,551
2020-06-10T02:48:22,42.805,6.029,CST-1368DR,6213,8708,15153,0.120,551
2020-06-10T02:51:23,42.805,6.029,CST-1368DR,6213,8708,15152,0.121,551
2020-06-10T02:54:25,42.805,6.029,CST-1368DR,6213,8708,15152,0.121,551
2020-06-10T02:57:27,42.805,6.029,CST-1368DR,6213,8708,15153,0.120,551
2020-06-10T03:00:28,42.805,6.029,CST-1368DR,6213,8707,15151,0.121,551
2020-06-10T03:03:30,42.805,6.029,CST-1368DR,6213,8709,15154,0.120,551
2020-06-10T03:06:32,42.805,6.029,CST-1368DR,6213,8708,15152,0.121,551
2020-06-10T03:09:34,42.805,6.029,CST-1368DR,6213,8708,15152,0.121,551
2020-06-10T03:12:35,42.805,6.029,CST-1368DR,6213,8708,15151,0.121,551
2020-06-10T03:15:37,42.805,6.029,CST-1368DR,6213,8708,15152,0.121,551
2020-06-10T03:18:39,42.805,6.029,CST-1368DR,6213,8708,15151,0.121,551
2020-06-10T03:21:40,42.805,6.029,CST-1368DR,6213,8707,15150,0.121,551
2020-06-10T03:24:42,42.805,6.029,CST-1368DR,6213,8708,15152,0.121,551
2020-06-10T03:27:44,42.805,6.029,CST-1368DR,6213,8708,15151,0.121,551
2020-06-10T03:30:45,42.805,6.029,CST-1368DR,6213,8708,15152,0.121,551
2020-06-10T03:33:47,42.805,6.029,CST-1368DR,6213,8708,15152,0.121,551
2020-06-10T03:36:49,42.805,6.029,CST-1368DR,6213,8707,15151,0.121,551
2020-06-10T03:39:50,42.805,6.029,CST-1368DR,6213,8708,15153,0.120,551
2020-06-10T03:42:52,42.805,6.029,CST-1368DR,6213,8707,15151,0.121,551
2020-06-10T03:45:54,42.805,6.029,CST-1368DR,6213,8708,15153,0.120,551
2020-06-10T03:48:55,42.805,6.029,CST-1368DR,6213,8708,15152,0.121,551
2020-06-10T03:51:57,42.805,6.029,CST-1368DR,6213,8708,15153,0.120,551
2020-06-10T03:54:59,42.805,6.029,CST-1368DR,6213,8707,15151,0.121,551
2020-06-10T03:58:00,42.805,6.029,CST-1368DR,6213,8708,15152,0.121,551
2020-06-10T04:01:02,42.805,6.029,CST-1368DR,6213,8708,15151,0.121,551
2020-06-10T04:04:04,42.805,6.029,CST-1368DR,6213,8708,15151,0.121,551
2020-06-10T04:07:06,42.805,6.029,CST-1368DR,6213,8707,15151,0.121,550
2020-06-10T04:10:07,42.805,6.029,CST-1368DR,6213,8708,15152,0.121,551
2020-06-10T04:13:09,42.805,6.029,CST-1368DR,6213,8708,15152,0.121,551
2020-06-10T04:16:11,42.805,6.029,CST-1368DR,6213,8707,15151,0.121,551
2020-06-10T04:19:13,42.805,6.029,CST-1368DR,6213,8708,15152,0.121,551
2020-06-10T04:22:14,42.805,6.029,CST-1368DR,6213,8708,15152,0.121,551
2020-06-10T04:25:16,42.805,6.029,CST-1368DR,6213,8708,15152,0.121,551
2020-06-10T04:28:18,42.805,6.029,CST-1368DR,6213,8708,15151,0.121,551
2020-06-10T04:31:19,42.805,6.029,CST-1368DR,6213,8707,15151,0.121,551
2020-06-10T04:34:21,42.805,6.029,CST-1368DR,6213,8708,15152,0.121,551
2020-06-10T04:37:23,42.805,6.029,CST-1368DR,6213,8708,15151,0.121,551
2020-06-10T04:40:25,42.805,6.029,CST-1368DR,6213,8707,15151,0.121,550
2020-06-10T04:43:26,42.805,6.029,CST-1368DR,6213,8707,15151,0.121,551
2020-06-10T04:46:28,42.805,6.029,CST-1368DR,6213,8708,15151,0.121,550
2020-06-10T04:49:30,42.805,6.029,CST-1368DR,6213,8708,15151,0.121,551
2020-06-10T04:52:31,42.805,6.029,CST-1368DR,6213,8706,15148,0.122,551
2020-06-10T04:55:33,42.805,6.029,CST-1368DR,6213,8707,15150,0.121,551
2020-06-10T04:58:35,42.805,6.029,CST-1368DR,6213,8706,15149,0.121,551
2020-06-10T05:01:36,42.805,6.029,CST-1368DR,6213,8707,15151,0.121,551
2020-06-10T05:04:38,42.805,6.029,CST-1368DR,6213,8707,15151,0.121,551
2020-06-10T05:07:40,42.805,6.029,CST-1368DR,6213,8706,15149,0.121,551
2020-06-10T05:10:42,42.805,6.029,CST-1368DR,6213,8707,15151,0.121,551
2020-06-10T05:13:44,42.805,6.029,CST-1368DR,6213,8707,15151,0.121,551
2020-06-10T05:16:45,42.805,6.029,CST-1368DR,6213,8707,15151,0.121,551
2020-06-10T05:19:47,42.805,6.029,CST-1368DR,6213,8706,15149,0.121,551
2020-06-10T05:22:49,42.805,6.029,CST-1368DR,6213,8707,15151,0.121,551
2020-06-10T05:25:50,42.805,6.029,CST-1368DR,6213,8706,15149,0.121,551
2020-06-10T05:28:52,42.805,6.029,CST-1368DR,6213,8707,15151,0.121,551
2020-06-10T05:31:54,42.805,6.029,CST-1368DR,6213,8707,15151,0.121,551
2020-06-10T05:34:55,42.805,6.029,CST-1368DR,6213,8707,15150,0.121,551
2020-06-10T05:37:57,42.805,6.029,CST-1368DR,6213,8708,15151,0.121,551
2020-06-10T05:40:59,42.805,6.029,CST-1368DR,6213,8707,15151,0.121,551
2020-06-10T05:44:00,42.805,6.029,CST-1368DR,6213,8707,15151,0.121,551
2020-06-10T05:47:02,42.805,6.029,CST-1368DR,6213,8707,15150,0.121,551
2020-06-10T05:50:04,42.805,6.029,CST-1368DR,6213,8707,15150,0.121,551
2020-06-10T05:53:06,42.805,6.029,CST-1368DR,6213,8706,15149,0.121,551
2020-06-10T05:56:07,42.805,6.029,CST-1368DR,6213,8707,15151,0.121,551
2020-06-10T05:59:09,42.805,6.029,CST-1368DR,6213,8707,15150,0.121,551
2020-06-10T06:02:11,42.805,6.029,CST-1368DR,6213,8708,15151,0.121,551
2020-06-10T06:05:13,42.805,6.029,CST-1368DR,6213,8707,15150,0.121,551
2020-06-10T06:08:14,42.805,6.029,CST-1368DR,6213,8708,15151,0.121,551
2020-06-10T06:11:16,42.805,6.029,CST-1368DR,6213,8707,15150,0.121,551
2020-06-10T06:14:18,42.805,6.029,CST-1368DR,6213,8707,15151,0.121,551
2020-06-10T06:17:19,42.805,6.029,CST-1368DR,6213,8706,15149,0.121,551
2020-06-10T06:20:21,42.805,6.029,CST-1368DR,6213,8707,15151,0.121,551
2020-06-10T06:23:23,42.805,6.029,CST-1368DR,6213,8707,15151,0.121,551
2020-06-10T06:26:25,42.805,6.029,CST-1368DR,6213,8707,15151,0.121,551
2020-06-10T06:29:26,42.805,6.029,CST-1368DR,6213,8707,15150,0.121,551
2020-06-10T06:32:28,42.805,6.029,CST-1368DR,6213,8707,15150,0.121,551
2020-06-10T06:35:30,42.805,6.029,CST-1368DR,6213,8706,15149,0.121,551
2020-06-10T06:38:31,42.805,6.029,CST-1368DR,6213,8707,15151,0.121,551
2020-06-10T06:41:33,42.805,6.029,CST-1368DR,6213,8708,15152,0.121,551
2020-06-10T06:44:35,42.805,6.029,CST-1368DR,6213,8707,15151,0.121,551
2020-06-10T06:47:36,42.805,6.029,CST-1368DR,6213,8707,15151,0.121,551
2020-06-10T06:50:38,42.805,6.029,CST-1368DR,6213,8707,15151,0.121,551
2020-06-10T06:53:40,42.805,6.029,CST-1368DR,6212,8707,15153,0.120,551
2020-06-10T06:56:41,42.805,6.029,CST-1368DR,6212,8706,15152,0.121,551
2020-06-10T06:59:43,42.805,6.029,CST-1368DR,6212,8706,15151,0.121,551
2020-06-10T07:02:45,42.805,6.029,CST-1368DR,6213,8707,15151,0.121,551
2020-06-10T07:05:47,42.805,6.029,CST-1368DR,6212,8705,15150,0.121,551
2020-06-10T07:08:48,42.805,6.029,CST-1368DR,6212,8706,15151,0.121,551
2020-06-10T07:11:50,42.805,6.029,CST-1368DR,6213,8706,15149,0.121,551
2020-06-10T07:14:52,42.805,6.029,CST-1368DR,6212,8706,15152,0.121,551
2020-06-10T07:17:53,42.805,6.029,CST-1368DR,6212,8706,15151,0.121,551
2020-06-10T07:20:55,42.805,6.029,CST-1368DR,6212,8707,15153,0.120,551
2020-06-10T07:23:57,42.805,6.029,CST-1368DR,6212,8707,15153,0.120,551
2020-06-10T07:26:58,42.805,6.029,CST-1368DR,6212,8706,15151,0.121,551
2020-06-10T07:30:00,42.805,6.029,CST-1368DR,6212,8706,15151,0.121,551
2020-06-10T07:33:02,42.805,6.029,CST-1368DR,6212,8706,15151,0.121,551
2020-06-10T07:36:04,42.805,6.029,CST-1368DR,6212,8706,15151,0.121,551
2020-06-10T07:39:05,42.805,6.029,CST-1368DR,6212,8705,15150,0.121,551
2020-06-10T07:42:07,42.805,6.029,CST-1368DR,6212,8707,15152,0.121,551
2020-06-10T07:45:09,42.805,6.029,CST-1368DR,6212,8706,15151,0.121,551
2020-06-10T07:48:11,42.805,6.029,CST-1368DR,6212,8706,15151,0.121,551
2020-06-10T07:51:13,42.805,6.029,CST-1368DR,6212,8706,15150,0.121,551
2020-06-10T07:54:14,42.805,6.029,CST-1368DR,6212,8706,15151,0.121,551
2020-06-10T07:57:16,42.805,6.029,CST-1368DR,6212,8706,15151,0.121,551
2020-06-10T08:00:18,42.805,6.029,CST-1368DR,6212,8707,15152,0.121,551
2020-06-10T08:03:19,42.805,6.029,CST-1368DR,6212,8706,15152,0.121,551
2020-06-10T08:06:21,42.805,6.029,CST-1368DR,6212,8706,15151,0.121,551
2020-06-10T08:09:23,42.805,6.029,CST-1368DR,6212,8706,15151,0.121,551
2020-06-10T08:12:24,42.805,6.029,CST-1368DR,6212,8706,15151,0.121,551
2020-06-10T08:15:26,42.805,6.029,CST-1368DR,6212,8706,15151,0.121,551
2020-06-10T08:18:28,42.805,6.029,CST-1368DR,6212,8706,15151,0.121,551
2020-06-10T08:21:29,42.805,6.029,CST-1368DR,6212,8705,15150,0.121,551
2020-06-10T08:24:31,42.805,6.029,CST-1368DR,6212,8705,15150,0.121,551
2020-06-10T08:27:33,42.805,6.029,CST-1368DR,6212,8705,15150,0.121,551
2020-06-10T08:30:35,42.805,6.029,CST-1368DR,6212,8706,15151,0.121,551
2020-06-10T08:33:36,42.805,6.029,CST-1368DR,6212,8705,15149,0.121,551
2020-06-10T08:36:38,42.805,6.029,CST-1368DR,6212,8705,15150,0.121,551
2020-06-10T08:39:40,42.805,6.029,CST-1368DR,6212,8705,15150,0.121,551
2020-06-10T08:42:41,42.805,6.029,CST-1368DR,6212,8702,15144,0.123,551
2020-06-10T08:45:43,42.805,6.029,CST-1368DR,6212,8706,15150,0.121,551
2020-06-10T08:48:45,42.805,6.029,CST-1368DR,6212,8705,15149,0.121,551
2020-06-10T08:51:46,42.805,6.029,CST-1368DR,6212,8705,15149,0.121,551
2020-06-10T08:54:48,42.805,6.029,CST-1368DR,6212,8705,15150,0.121,551
2020-06-10T08:57:50,42.805,6.029,CST-1368DR,6212,8705,15149,0.121,551
2020-06-10T09:00:52,42.805,6.029,CST-1368DR,6212,8705,15150,0.121,551
2020-06-10T09:03:53,42.805,6.029,CST-1368DR,6212,8705,15150,0.121,551
2020-06-10T09:06:55,42.805,6.029,CST-1368DR,6212,8705,15149,0.121,551
2020-06-10T09:09:57,42.805,6.029,CST-1368DR,6212,8705,15150,0.121,551
2020-06-10T09:12:58,42.805,6.029,CST-1368DR,6212,8706,15150,0.121,551
2020-06-10T09:16:00,42.805,6.029,CST-1368DR,6212,8703,15146,0.122,551
2020-06-10T09:19:02,42.805,6.029,CST-1368DR,6212,8706,15150,0.121,551
2020-06-10T09:22:03,42.805,6.029,CST-1368DR,6212,8706,15150,0.121,551
2020-06-10T09:25:05,42.805,6.029,CST-1368DR,6212,8705,15149,0.121,551
2020-06-10T09:28:07,42.805,6.029,CST-1368DR,6212,8706,15151,0.121,551
2020-06-10T09:31:08,42.805,6.029,CST-1368DR,6212,8706,15151,0.121,551
2020-06-10T09:34:10,42.805,6.029,CST-1368DR,6212,8706,15150,0.121,551
2020-06-10T09:37:12,42.805,6.029,CST-1368DR,6212,8705,15150,0.121,551
2020-06-10T09:40:14,42.805,6.029,CST-1368DR,6212,8706,15151,0.121,551
2020-06-10T09:43:16,42.805,6.029,CST-1368DR,6212,8706,15150,0.121,551
2020-06-10T09:46:17,42.805,6.029,CST-1368DR,6212,8705,15150,0.121,551
2020-06-10T09:49:19,42.805,6.029,CST-1368DR,6212,8706,15151,0.121,551
2020-06-10T09:52:21,42.805,6.029,CST-1368DR,6212,8706,15151,0.121,551
2020-06-10T09:55:23,42.805,6.029,CST-1368DR,6212,8705,15150,0.121,551
2020-06-10T09:58:24,42.805,6.029,CST-1368DR,6212,8706,15150,0.121,551
2020-06-10T10:01:26,42.805,6.029,CST-1368DR,6212,8705,15150,0.121,551
2020-06-10T10:04:28,42.805,6.029,CST-1368DR,6212,8706,15151,0.121,551
2020-06-10T10:07:29,42.805,6.029,CST-1368DR,6212,8706,15151,0.121,551
2020-06-10T10:10:31,42.805,6.029,CST-1368DR,6212,8703,15145,0.123,551
2020-06-10T10:13:33,42.805,6.029,CST-1368DR,6212,8705,15149,0.121,551
2020-06-10T10:16:34,42.805,6.029,CST-1368DR,6212,8706,15151,0.121,551
2020-06-10T10:19:36,42.805,6.029,CST-1368DR,6212,8705,15150,0.121,551
2020-06-10T10:22:38,42.805,6.029,CST-1368DR,6212,8705,15150,0.121,551
2020-06-10T10:25:40,42.805,6.029,CST-1368DR,6212,8703,15145,0.123,551
2020-06-10T10:28:41,42.805,6.029,CST-1368DR,6212,8706,15150,0.121,551
2020-06-10T10:31:43,42.805,6.029,CST-1368DR,6212,8706,15150,0.121,551
2020-06-10T10:34:45,42.805,6.029,CST-1368DR,6212,8705,15149,0.121,551
2020-06-10T10:37:46,42.805,6.029,CST-1368DR,6212,8705,15150,0.121,551
2020-06-10T10:40:48,42.805,6.029,CST-1368DR,6212,8706,15150,0.121,551
2020-06-10T10:43:50,42.805,6.029,CST-1368DR,6212,8705,15150,0.121,551
2020-06-10T10:46:51,42.805,6.029,CST-1368DR,6212,8705,15150,0.121,551
2020-06-10T10:49:53,42.805,6.029,CST-1368DR,6212,8705,15149,0.121,551
2020-06-10T10:52:55,42.805,6.029,CST-1368DR,6212,8706,15150,0.121,551
2020-06-10T10:55:56,42.805,6.029,CST-1368DR,6212,8706,15151,0.121,551
2020-06-10T10:58:58,42.805,6.029,CST-1368DR,6212,8706,15150,0.121,551
2020-06-10T11:02:00,42.805,6.029,CST-1368DR,6212,8705,15150,0.121,551
2020-06-10T11:05:02,42.805,6.029,CST-1368DR,6212,8706,15151,0.121,551
2020-06-10T11:08:03,42.805,6.029,CST-1368DR,6212,8705,15150,0.121,551
2020-06-10T11:11:05,42.805,6.029,CST-1368DR,6212,8706,15151,0.121,551
2020-06-10T11:14:07,42.805,6.029,CST-1368DR,6212,8706,15151,0.121,551
2020-06-10T11:17:08,42.805,6.029,CST-1368DR,6212,8703,15145,0.123,551
2020-06-10T11:20:10,42.805,6.029,CST-1368DR,6212,8704,15148,0.122,551
2020-06-10T11:23:12,42.805,6.029,CST-1368DR,6212,8705,15149,0.121,551
2020-06-10T11:26:13,42.805,6.029,CST-1368DR,6212,8705,15149,0.121,551
2020-06-10T11:29:15,42.805,6.029,CST-1368DR,6212,8705,15149,0.121,551
2020-06-10T11:32:17,42.805,6.029,CST-1368DR,6212,8705,15150,0.121,551
2020-06-10T11:35:18,42.805,6.029,CST-1368DR,6211,8705,15151,0.121,551
2020-06-10T11:38:20,42.805,6.029,CST-1368DR,6212,8703,15146,0.122,551
2020-06-10T11:41:22,42.805,6.029,CST-1368DR,6211,8704,15150,0.121,551
2020-06-10T11:44:23,42.805,6.029,CST-1368DR,6211,8704,15150,0.121,550
2020-06-10T11:47:25,42.805,6.029,CST-1368DR,6211,8705,15152,0.121,550
2020-06-10T11:50:27,42.805,6.029,CST-1368DR,6211,8704,15150,0.121,551
2020-06-10T11:53:29,42.805,6.029,CST-1368DR,6211,8706,15153,0.120,551
2020-06-10T11:56:30,42.805,6.029,CST-1368DR,6211,8704,15150,0.121,551
2020-06-10T11:59:32,42.805,6.029,CST-1368DR,6211,8705,15151,0.121,550
2020-06-10T12:02:34,42.805,6.029,CST-1368DR,6211,8706,15153,0.120,551
2020-06-10T12:05:35,42.805,6.029,CST-1368DR,6211,8706,15153,0.120,550
2020-06-10T12:08:37,42.805,6.029,CST-1368DR,6211,8706,15153,0.120,551
2020-06-10T12:11:39,42.805,6.029,CST-1368DR,6211,8705,15151,0.121,551
2020-06-10T12:14:40,42.805,6.029,CST-1368DR,6211,8703,15149,0.121,551
2020-06-10T12:17:42,42.805,6.029,CST-1368DR,6211,8704,15150,0.121,551
2020-06-10T12:20:44,42.805,6.029,CST-1368DR,6211,8705,15151,0.121,551
2020-06-10T12:23:46,42.805,6.029,CST-1368DR,6211,8704,15150,0.121,551
2020-06-10T12:26:47,42.805,6.029,CST-1368DR,6211,8706,15153,0.120,551
2020-06-10T12:29:49,42.805,6.029,CST-1368DR,6211,8705,15152,0.121,550
2020-06-10T12:32:51,42.805,6.029,CST-1368DR,6211,8706,15153,0.120,551
2020-06-10T12:35:52,42.805,6.029,CST-1368DR,6211,8705,15152,0.121,551
2020-06-10T12:38:54,42.805,6.029,CST-1368DR,6211,8705,15152,0.121,551
2020-06-10T12:41:56,42.805,6.029,CST-1368DR,6211,8705,15152,0.121,551
2020-06-10T12:44:57,42.805,6.029,CST-1368DR,6211,8701,15144,0.123,551
2020-06-10T12:47:59,42.805,6.029,CST-1368DR,6211,8705,15152,0.121,551
2020-06-10T12:51:01,42.805,6.029,CST-1368DR,6211,8701,15145,0.123,551
2020-06-10T12:54:02,42.805,6.029,CST-1368DR,6211,8705,15152,0.121,551
2020-06-10T12:57:04,42.805,6.029,CST-1368DR,6211,8705,15151,0.121,551
2020-06-10T13:00:06,42.805,6.029,CST-1368DR,6211,8703,15148,0.122,551
2020-06-10T13:03:07,42.805,6.029,CST-1368DR,6211,8705,15151,0.121,551
2020-06-10T13:06:09,42.805,6.029,CST-1368DR,6211,8705,15152,0.121,551
2020-06-10T13:09:11,42.805,6.029,CST-1368DR,6211,8706,15153,0.120,551
2020-06-10T13:12:13,42.805,6.029,CST-1368DR,6211,8705,15152,0.121,551
2020-06-10T13:15:14,42.805,6.029,CST-1368DR,6211,8706,15153,0.120,551
2020-06-10T13:18:16,42.805,6.029,CST-1368DR,6211,8704,15150,0.121,551
2020-06-10T13:21:18,42.805,6.029,CST-1368DR,6211,8704,15150,0.121,551
2020-06-10T13:24:19,42.805,6.029,CST-1368DR,6211,8705,15152,0.121,551
2020-06-10T13:27:21,42.805,6.029,CST-1368DR,6211,8704,15150,0.121,551
2020-06-10T13:30:23,42.805,6.029,CST-1368DR,6211,8704,15150,0.121,551
2020-06-10T13:33:24,42.805,6.029,CST-1368DR,6211,8705,15151,0.121,551
2020-06-10T13:36:26,42.805,6.029,CST-1368DR,6211,8705,15151,0.121,551
2020-06-10T13:39:28,42.805,6.029,CST-1368DR,6211,8705,15151,0.121,551
2020-06-10T13:42:29,42.805,6.029,CST-1368DR,6211,8704,15150,0.121,551
2020-06-10T13:45:31,42.805,6.029,CST-1368DR,6211,8704,15150,0.121,551
2020-06-10T13:48:33,42.805,6.029,CST-1368DR,6211,8705,15151,0.121,551
2020-06-10T13:51:35,42.805,6.029,CST-1368DR,6211,8705,15151,0.121,551
2020-06-10T13:54:36,42.805,6.029,CST-1368DR,6211,8705,15152,0.121,551
2020-06-10T13:57:38,42.805,6.029,CST-1368DR,6211,8705,15151,0.121,551
2020-06-10T14:00:40,42.805,6.029,CST-1368DR,6211,8704,15150,0.121,551
2020-06-10T14:03:41,42.805,6.029,CST-1368DR,6211,8705,15151,0.121,551
2020-06-10T14:06:43,42.805,6.029,CST-1368DR,6211,8705,15151,0.121,551
2020-06-10T14:09:45,42.805,6.029,CST-1368DR,6211,8705,15151,0.121,551
2020-06-10T14:12:47,42.805,6.029,CST-1368DR,6211,8705,15152,0.121,551
2020-06-10T14:15:48,42.805,6.029,CST-1368DR,6211,8705,15152,0.121,551
2020-06-10T14:18:50,42.805,6.029,CST-1368DR,6211,8705,15151,0.121,551
2020-06-10T14:21:52,42.805,6.029,CST-1368DR,6211,8704,15150,0.121,551
2020-06-10T14:24:53,42.805,6.029,CST-1368DR,6211,8705,15152,0.121,550
2020-06-10T14:27:55,42.805,6.029,CST-1368DR,6211,8705,15151,0.121,551
2020-06-10T14:30:57,42.805,6.029,CST-1368DR,6211,8704,15150,0.121,551
2020-06-10T14:33:58,42.805,6.029,CST-1368DR,6211,8704,15150,0.121,551
2020-06-10T14:37:00,42.805,6.029,CST-1368DR,6211,8703,15148,0.122,551
2020-06-10T14:40:02,42.805,6.029,CST-1368DR,6211,8704,15150,0.121,551
2020-06-10T14:43:04,42.805,6.029,CST-1368DR,6211,8705,15151,0.121,551
2020-06-10T14:46:05,42.805,6.029,CST-1368DR,6211,8705,15151,0.121,551
2020-06-10T14:49:07,42.805,6.029,CST-1368DR,6211,8705,15152,0.121,551
2020-06-10T14:52:09,42.805,6.029,CST-1368DR,6211,8704,15150,0.121,551
2020-06-10T14:55:11,42.805,6.029,CST-1368DR,6211,8705,15151,0.121,551
2020-06-10T14:58:13,42.805,6.029,CST-1368DR,6211,8705,15151,0.121,551
2020-06-10T15:01:14,42.805,6.029,CST-1368DR,6211,8705,15152,0.121,551
2020-06-10T15:04:16,42.805,6.029,CST-1368DR,6211,8704,15150,0.121,551
2020-06-10T15:07:18,42.805,6.029,CST-1368DR,6211,8705,15152,0.121,551
2020-06-10T15:10:19,42.805,6.029,CST-1368DR,6211,8705,15151,0.121,551
2020-06-10T15:13:21,42.805,6.029,CST-1368DR,6211,8705,15151,0.121,551
2020-06-10T15:16:23,42.805,6.029,CST-1368DR,6211,8704,15150,0.121,551
2020-06-10T15:19:24,42.805,6.029,CST-1368DR,6211,8703,15148,0.122,551
2020-06-10T15:22:26,42.805,6.029,CST-1368DR,6211,8704,15150,0.121,551
2020-06-10T15:25:28,42.805,6.029,CST-1368DR,6211,8705,15151,0.121,551
2020-06-10T15:28:29,42.805,6.029,CST-1368DR,6211,8704,15150,0.121,551
2020-06-10T15:31:31,42.805,6.029,CST-1368DR,6211,8705,15151,0.121,551
2020-06-10T15:34:33,42.805,6.029,CST-1368DR,6211,8704,15150,0.121,551
2020-06-10T15:37:35,42.805,6.029,CST-1368DR,6211,8704,15150,0.121,551
2020-06-10T15:40:36,42.805,6.029,CST-1368DR,6211,8704,15150,0.121,551
2020-06-10T15:43:38,42.805,6.029,CST-1368DR,6211,8703,15149,0.121,551
2020-06-10T15:46:40,42.805,6.029,CST-1368DR,6211,8703,15147,0.122,551
2020-06-10T15:49:41,42.805,6.029,CST-1368DR,6211,8703,15148,0.122,551
2020-06-10T15:52:43,42.805,6.029,CST-1368DR,6211,8703,15149,0.121,551
2020-06-10T15:55:45,42.805,6.029,CST-1368DR,6211,8703,15148,0.122,551
2020-06-10T15:58:46,42.805,6.029,CST-1368DR,6211,8703,15149,0.121,550
2020-06-10T16:01:48,42.805,6.029,CST-1368DR,6211,8703,15148,0.122,550
2020-06-10T16:04:50,42.805,6.029,CST-1368DR,6211,8703,15147,0.122,551
2020-06-10T16:07:52,42.805,6.029,CST-1368DR,6211,8701,15144,0.123,551
2020-06-10T16:10:53,42.805,6.029,CST-1368DR,6211,8704,15150,0.121,551
2020-06-10T16:13:55,42.805,6.029,CST-1368DR,6211,8702,15147,0.122,551
2020-06-10T16:16:57,42.805,6.029,CST-1368DR,6211,8703,15149,0.121,551
2020-06-10T16:19:58,42.805,6.029,CST-1368DR,6211,8702,15147,0.122,551
2020-06-10T16:23:00,42.805,6.029,CST-1368DR,6211,8703,15147,0.122,551
2020-06-10T16:26:02,42.805,6.029,CST-1368DR,6210,8703,15150,0.121,551
2020-06-10T16:29:04,42.805,6.029,CST-1368DR,6211,8703,15148,0.122,551
2020-06-10T16:32:05,42.805,6.029,CST-1368DR,6211,8703,15149,0.121,551
2020-06-10T16:35:07,42.805,6.029,CST-1368DR,6211,8703,15148,0.122,551
2020-06-10T16:38:09,42.805,6.029,CST-1368DR,6211,8703,15148,0.122,551
2020-06-10T16:41:10,42.805,6.029,CST-1368DR,6210,8703,15150,0.121,551
2020-06-10T16:44:12,42.805,6.029,CST-1368DR,6211,8703,15148,0.122,551
2020-06-10T16:47:14,42.805,6.029,CST-1368DR,6211,8703,15148,0.122,551
2020-06-10T16:50:16,42.805,6.029,CST-1368DR,6210,8702,15149,0.121,551
2020-06-10T16:53:17,42.805,6.029,CST-1368DR,6210,8703,15150,0.121,551